Flight Track Log - Related Links

Times and Time Zones

All times are in EDT time to prevent confusion due to time zone crossing. See the EJA922 flight status page for this flight to view local times or setup timezone preferences in your user account.

Time Position Orientation Groundspeed Altitude Reporting Facility
EDT Latitude Longitude Course Direction KTS MPH feet Rate Location/Type
Wed 10:16:44 AM 33.3000 -111.6500 140° Southeast 180 207 2,000  Level Phoenix TRACON
Wed 10:17:20 AM 33.2667 -111.6167 140° Southeast 221 254 3,800 1,600 Climbing Phoenix TRACON
Wed 10:18:14 AM 33.2333 -111.5667 129° Southeast 229 264 4,400 2,300 Climbing Phoenix TRACON
Wed 10:19:20 AM 33.2833 -111.5167 40° Northeast 275 316 8,400 3,750 Climbing Phoenix TRACON
Wed 10:20:14 AM 33.3528 -111.5167 360° North 287 330 11,900 3,026 Climbing Albuquerque Center
Wed 10:21:15 AM 33.4447 -111.5464 345° North 346 398 14,200 2,098 Climbing Albuquerque Center
Wed 10:22:17 AM 33.5450 -111.5897 340° North 381 438 16,200 1,935 Climbing Albuquerque Center
Wed 10:23:19 AM 33.6497 -111.6342 341° North 396 456 18,200 2,098 Climbing Albuquerque Center
Wed 10:24:20 AM 33.7722 -111.6833 342° North 401 461 20,500 2,049 Climbing Albuquerque Center
Wed 10:25:22 AM 33.8797 -111.7264 342° North 407 468 22,400 1,645 Climbing Albuquerque Center
Wed 10:26:24 AM 33.9931 -111.7339 357° North 423 487 23,900 1,463 Climbing Albuquerque Center
Wed 10:27:25 AM 34.0956 -111.6661 29° Northeast 425 489 25,400 1,463 Climbing Albuquerque Center
Wed 10:28:27 AM 34.2003 -111.5933 30° Northeast 435 501 26,900 1,452 Climbing Albuquerque Center
Wed 10:29:29 AM 34.3050 -111.5139 32° Northeast 441 507 28,400 1,452 Climbing Albuquerque Center
Wed 10:30:31 AM 34.4136 -111.4392 30° Northeast 447 514 29,900 1,512 Climbing Albuquerque Center
Wed 10:31:32 AM 34.5489 -111.3483 29° Northeast 459 528 31,500 1,415 Climbing Albuquerque Center
Wed 10:32:34 AM 34.6631 -111.2667 30° Northeast 471 542 32,800 1,258 Climbing Albuquerque Center
Wed 10:33:36 AM 34.7797 -111.1839 30° Northeast 480 552 34,100 1,161 Climbing Albuquerque Center
Wed 10:34:38 AM 34.8997 -111.0981 30° Northeast 494 568 35,200 1,161 Climbing Albuquerque Center
Wed 10:35:40 AM 35.0214 -111.0086 31° Northeast 505 581 36,500 871 Climbing Albuquerque Center
Wed 10:36:42 AM 35.1525 -110.9167 30° Northeast 520 598 37,000 244 Climbing Albuquerque Center
Wed 10:37:43 AM 35.2981 -110.8103 31° Northeast 538 619 37,000  Level Albuquerque Center
Wed 10:38:45 AM 35.4261 -110.7192 30° Northeast 549 632 37,000  Level Albuquerque Center
Wed 10:39:47 AM 35.5739 -110.6111 31° Northeast 551 634 37,000  Level Albuquerque Center
Wed 10:40:49 AM 35.7000 -110.5194 31° Northeast 550 633 37,000  Level Albuquerque Center
Wed 10:41:51 AM 35.8467 -110.4119 31° Northeast 548 631 37,000  Level Albuquerque Center
Wed 10:42:30 AM 35.9253 -110.3553 30° Northeast 547 629 37,000  Level Denver Center
Wed 10:43:32 AM 36.0569 -110.2586 31° Northeast 549 632 37,000  Level Denver Center
Wed 10:44:34 AM 36.1861 -110.1631 31° Northeast 546 628 37,000  Level Denver Center
Wed 10:45:36 AM 36.3281 -110.0572 31° Northeast 547 629 37,000  Level Denver Center
Wed 10:46:38 AM 36.4544 -109.9636 31° Northeast 549 632 37,000  Level Denver Center
Wed 10:47:40 AM 36.6017 -109.8539 31° Northeast 550 633 37,000  Level Denver Center
Wed 10:48:42 AM 36.7281 -109.7597 31° Northeast 549 632 37,000  Level Denver Center
Wed 10:49:56 AM 36.8736 -109.6489 31° Northeast 547 629 37,000  Level Denver Center
Wed 10:50:58 AM 37.0192 -109.5386 31° Northeast 547 629 37,000  Level Denver Center
Wed 10:52:01 AM 37.1644 -109.4289 31° Northeast 544 626 37,000  Level Denver Center
Wed 10:53:03 AM 37.2894 -109.3319 32° Northeast 549 632 37,000  Level Denver Center
Wed 10:54:16 AM 37.4342 -109.2211 31° Northeast 545 627 37,000  Level Denver Center
Wed 10:55:19 AM 37.5992 -109.0931 32° Northeast 544 626 37,000  Level Denver Center
Wed 10:56:21 AM 37.7233 -108.9969 31° Northeast 546 628 37,000  Level Denver Center
Wed 10:57:23 AM 37.8594 -108.8728 36° Northeast 540 621 37,000 -387 Level Denver Center
Wed 10:58:25 AM 37.9631 -108.7433 45° Northeast 542 624 36,200 -871 Descending Denver Center
Wed 10:59:27 AM 38.0664 -108.6147 44° Northeast 542 624 35,200 -581 Descending Denver Center
Wed 11:00:29 AM 38.1856 -108.4622 45° Northeast 544 626 35,000 -97 Descending Denver Center
Wed 11:01:31 AM 38.2728 -108.3544 44° Northeast 546 628 35,000 -677 Level Denver Center
Wed 11:02:33 AM 38.4169 -108.1781 44° Northeast 543 625 33,600 -1,839 Descending Denver Center
Wed 11:03:35 AM 38.5236 -108.0433 45° Northeast 541 623 31,200 -2,468 Descending Denver Center
Wed 11:04:37 AM 38.6394 -107.8986 44° Northeast 544 626 28,500 -2,371 Descending Denver Center
Wed 11:05:39 AM 38.7314 -107.7783 46° Northeast 546 628 26,300 -2,419 Descending Denver Center
Wed 11:06:41 AM 38.8422 -107.6400 44° Northeast 503 579 23,500 -2,661 Descending Denver Center
Wed 11:07:43 AM 38.9483 -107.5069 44° Northeast 493 567 20,800 -1,694 Descending Denver Center
Wed 11:08:45 AM 39.0389 -107.3889 45° Northeast 479 551 20,000 -387 Descending Denver Center
Wed 11:09:47 AM 39.1267 -107.2772 45° Northeast 460 529 20,000 -480 Level Denver Center
Wed 11:10:50 AM 39.2014 -107.1861 43° Northeast 387 445 19,000 -960 Descending Denver Center
Wed 11:11:52 AM 39.2700 -107.1017 44° Northeast 352 405 18,000 -484 Descending Denver Center
Wed 11:12:54 AM 39.3394 -107.1067 357° North 273 314 18,000 -48 Level Denver Center
Wed 11:13:56 AM 39.4186 -107.1325 346° North 268 308 17,900 -581 Descending Denver Center
Wed 11:14:58 AM 39.4933 -107.1569 346° North 274 315 16,800 -823 Descending Denver Center
Wed 11:16:00 AM 39.5625 -107.1528 North 276 318 16,200 -484 Descending Denver Center
Wed 11:17:02 AM 39.5458 -107.0711 105° East 285 328 15,800 -387 Descending Denver Center
Wed 11:18:04 AM 39.4686 -107.0094 148° Southeast 276 318 15,400 -1,016 Descending Denver Center
Wed 11:19:06 AM 39.4106 -106.9725 154° Southeast 255 293 13,700 -1,721 Descending Denver Center
Wed 11:20:20 AM 39.3506 -106.9450 160° South 242 278 11,500 -2,074 Descending Denver Center
Wed 11:21:22 AM 39.2911 -106.9058 153° Southeast 189 217 9,000 -1,548 Descending Denver Center
Wed 11:22:24 AM 39.2581 -106.8814 150° Southeast 175 201 8,300 -677 Descending Denver Center

Login

Don't have an account? Register now (free) for customized features, flight alerts, and more!